COSMOS 2489

Satellite information

Favourite Embed

Satellite Type and Status

PAYLOADIN ORBIT

Key statistics

Satellite COSMOS 2489 at a glance.

Uptime

4212

Days in orbit

Revolutions

≈ 12.4

Per day

Orbit

LEO

Low Earth Orbit

Inclination

82.5

Latest

Satellite identification and parameters

Extended collection of information and parameters for COSMOS 2489.

Object identification

Identified? True

Debris? False

Object name: COSMOS 2489

International designator: 2013-076B

Object number (NORAD): 39484

Object ID (CCSDS): 39484

Country: COMMONWEALTH OF INDEPENDENT STATES (CIS)

Current information (Y/N): Y

RCS size: LARGE

Orbital parameters

Period: 115.861 minutes

Inclination: 82.4876 deg

SMA: 7872.617 km

Apoapsis: 1511.467 km

Periapsis: 1477.497 km

RAAN: 25.3316 deg

Eccentricy: 0.0021575

Argument of periapsis: 127.5834 deg

Mean anomaly: 232.7209 deg

Mean motion: 12.42865263 rev/day

Mean motion (dot): 0.00000041 rev/day2

B* drag term: 0.00022399 1/REarth

Two-line elements (TLE)

Creation date: July 6, 2025, 6:05 p.m.

Reference frame: TEME

Reference center: EARTH

Epoch: July 6, 2025, 2:18 p.m. UTC

TLE line 0: 0 COSMOS 2489

TLE line 1: 1 39484U 13076B 25187.59617683 .00000041 00000-0 22399-3 0 9996

TLE line 2: 2 39484 82.4876 25.3316 0021575 127.5834 232.7209 12.42865263523010

Live tracking on map

Real-time ground track for satellite COSMOS 2489.

In-orbit conjunctions

There are no conjunctions computed for COSMOS 2489, at the moment. Check back to stay up to date, as we update our databases every day.

Go to all conjunctions

Associated space launch

COSMOS 2489 was lifted into orbit during the mission ‘Rokot / Briz-KM | 3 x Strela-3M (Kosmos-2488, Kosmos-2489, Kosmos-2490) & Kosmos-2491’, on board a Rokot/Briz-KM space rocket.

The launch took place on Dec. 25, 2013, 12:31 a.m. from 133/3 (133L).

For more information about the launch, click the button.

Launch to space Rokot / Briz-KM | 3 x Strela-3M (Kosmos-2488, Kosmos-2489, Kosmos-2490) & Kosmos-2491
Rokot / Briz-KM | 3 x Strela-3M (Kosmos-2488, Kosmos-2489, Kosmos-2490) & Kosmos-2491

Agency: N/A

Status: Launch Successful

Launch date: Dec. 25, 2013, 12:31 a.m. UTC

Rocket: Rokot/Briz-KM

Launch pad: 133/3 (133L)

Location: Plesetsk Cosmodrome, Russian Federation

...

Latest news about this satellite

There are no fresh news available about this satellite. Check back as we update our databases every day.


Newsletter sign-up

Weekly statistics, charts and insights to help you stay on top of the space industry.